Regional Weather Roundup
Issued by NWS

Home | Current Version | Previous Version | Graphics & Text | Print | Product List | Glossary On
Versions: 1 2 3 4 5 6 7 8 9 10 11 12 13 14 15 16 17 18 19 20 21 22 23 24 25 26 27 28 29 30 31 32 33 34 35 36 37 38 39 40 41 42 43 44 45 46 47 48 49 50
000
ASUS45 KCYS 300010
RWRWY

WYOMING REGIONAL WEATHER ROUNDUP
NATIONAL WEATHER SERVICE CHEYENNE WY
600 PM MDT MON AUG 29 2016

NOTE:  "FAIR" INDICATES FEW OR NO CLOUDS BELOW 12,000 FEET
WITH NO SIGNIFICANT WEATHER AND/OR OBSTRUCTIONS TO VISIBILITY.

WYZ001-300100-
YELLOWSTONE NATIONAL PARK

CITY           SKY/WX    TMP DP  RH WIND       PRES   REMARKS
LK YELLOWSTONE   N/A     74  22  14 VRB5      30.42S
6HR MIN TEMP:  65; 6HR MAX TEMP:  76;

W YELLOWSTONE  NOT AVBL

$$
WYZ002>013-054>058-071-098>099-300100-
NORTHERN WYOMING

CITY           SKY/WX    TMP DP  RH WIND       PRES   REMARKS
JACKSON        SUNNY     84  21  10 W6        30.29S
CODY           FAIR      82  37  20 SE7       30.23S
GREYBULL       FAIR      89  39  17 S7        30.13F
6HR MIN TEMP:  75; 6HR MAX TEMP:  89;

WORLAND        FAIR      90  35  14 S6        30.15F
6HR MIN TEMP:  74; 6HR MAX TEMP:  90;

SHERIDAN       FAIR      87  43  21 SE9       30.19F
6HR MIN TEMP:  79; 6HR MAX TEMP:  88;

BUFFALO        FAIR      84  38  19 S6        30.27F
6HR MIN TEMP:  78; 6HR MAX TEMP:  85;

GILLETTE       FAIR      85  45  24 E14       30.22S
6HR MIN TEMP:  77; 6HR MAX TEMP:  88;

HULETT         FAIR      79  48  34 E20G26    30.27S
NEWCASTLE      FAIR      72  46  40 NE12      30.25S

$$
WYZ014>020-022>026-101>103-300100-
CENTRAL WYOMING

CITY           SKY/WX    TMP DP  RH WIND       PRES   REMARKS
BIG PINEY      FAIR      81  24  12 SW7       30.35F
6HR MIN TEMP:  75; 6HR MAX TEMP:  83;

PINEDALE       FAIR      81  27  13 SE8       30.36S
DUBOIS         FAIR      75  30  19 SE15G23   30.37S
LANDER         FAIR      86  31  13 E6        30.26F
6HR MIN TEMP:  79; 6HR MAX TEMP:  87;

RIVERTON       FAIR      86  31  13 E8        30.26F
6HR MIN TEMP:  76; 6HR MAX TEMP:  86;

CASPER         FAIR      84  34  16 E9        30.27S
6HR MIN TEMP:  77; 6HR MAX TEMP:  86;

DOUGLAS        PTSUNNY   81  42  25 E13       30.27S
6HR MIN TEMP:  71; 6HR MAX TEMP:  89; 6HR PCP:  0.15;


$$
WYZ021-027>030-104>119-300100-
SOUTHERN WYOMING

CITY           SKY/WX    TMP DP  RH WIND       PRES   REMARKS
EVANSTON       FAIR      80  20  10 NE10      30.34S
6HR MIN TEMP:  76; 6HR MAX TEMP:  84;

FORT BRIDGER   CLEAR     82  21  10 CALM      30.37F
ROCK SPRINGS   FAIR      82  20  10 NE16      30.31F
6HR MIN TEMP:  76; 6HR MAX TEMP:  85;

DIXON          FAIR      78  31  17 CALM      30.32F
RAWLINS        FAIR      79  27  14 NE13G25   30.35S
6HR MIN TEMP:  76; 6HR MAX TEMP:  85;

SARATOGA       FAIR      75  30  19 E12       30.36S
LARAMIE        FAIR      73  31  21 E14G22    30.40S
6HR MIN TEMP:  72; 6HR MAX TEMP:  79;

CHEYENNE       FAIR      74  41  30 E12       30.35R
6HR MIN TEMP:  74; 6HR MAX TEMP:  83;

TORRINGTON     FAIR      81  49  32 SE7       30.22S
6HR MIN TEMP:  75; 6HR MAX TEMP:  91; 6HR PCP:  0.03;

PINE BLUFFS    FAIR      77  45  31 E12G17    30.30R

$$



USA.gov is the U.S. government's official web portal to all federal, state and local government web resources and services.